Weather History for Pineville, WV

Change the Weather History Date:

Monday, January 21, 2013

  Actual Average (KBKW) Record (KBKW)
Temperature  
Mean Temperature 32 °F 31 °F  
Max Temperature 43 °F 39 °F 71 °F (1906)
Min Temperature 22 °F 23 °F -22 °F (1985)
Degree Days  
Heating Degree Days 32 34  
Month to date heating degree days 714  
Since 1 July heating degree days 2807  
Cooling Degree Days 0 0  
Month to date cooling degree days 0  
Year to date cooling degree days 0  
Moisture  
Dew Point 18 °F    
Average Humidity 65    
Maximum Humidity 99    
Minimum Humidity 31    
Precipitation  
Precipitation 0.00 in 0.09 in 1.48 in (1947)
Month to date precipitation 1.92  
Year to date precipitation 1.92  
Snow  
Snow 0.00 in - - ()
Month to date snowfall  
Since 1 September snowfall  
Snow Depth -    
Sea Level Pressure  
Sea Level Pressure 30.07 in    
Wind  
Wind Speed - (North)    
Max Wind Speed -    
Max Gust Speed -    
Visibility 10 miles    
Events      
T = Trace of Precipitation, MM = Missing Value Source: NWS Daily Summary

Daily Weather History Graph

Daily Weather History Graph

Search for Another Location

Airport:

Trip Planner

Search our weather history database for the weather conditions in past years. The results will help you decide how hot, cold, wet, or windy it might be!

Date:

Astronomy

Jan. 21, 2013 Rise Set
Actual Time 7:37 AM EST 5:38 PM EST
Civil Twilight 7:09 AM EST 6:06 PM EST
Nautical Twilight 6:37 AM EST 6:38 PM EST
Astronomical Twilight 6:06 AM EST 7:09 PM EST
Moon 1:17 PM EST (1/21) 3:04 AM EST (1/21)
Length of Visible Light 10h 57m
Length of Day
10h 01m
Waxing Gibbous, 75% of the Moon is Illuminated
Jan 21
Waxing Gibbous
Jan 26
Full
Feb 3
Last Quarter
Feb 10
New
Feb 17
First Quarter

Hourly Weather History & Observations

Time (EST) Temp. Dew Point Humidity Pressure Visibility Wind Dir Wind Speed Gust Speed Precip Events Conditions
12:15 AM 26.6 °F 25.3 °F 95% 30.13 in 10.0 mi North - - N/A   Clear
12:35 AM 26.6 °F 25.5 °F 96% 30.13 in 10.0 mi North - - N/A   Clear
12:55 AM 26.2 °F 25.0 °F 95% 30.13 in 10.0 mi North - - N/A   Clear
1:15 AM 25.7 °F 24.4 °F 95% 30.12 in 10.0 mi North - - N/A   Clear
1:35 AM 25.7 °F 24.6 °F 96% 30.13 in 10.0 mi North - - N/A   Clear
1:55 AM 25.5 °F 24.4 °F 96% 30.12 in 10.0 mi North - - N/A   Clear
2:15 AM 24.8 °F 23.9 °F 96% 30.13 in 10.0 mi North - - N/A   Clear
2:35 AM 24.8 °F 24.1 °F 97% 30.13 in 10.0 mi North - - N/A   Clear
2:55 AM 24.8 °F 24.1 °F 97% 30.13 in 10.0 mi North - - N/A   Clear
3:15 AM 24.4 °F 23.5 °F 96% 30.13 in 10.0 mi North - - N/A   Clear
3:35 AM 23.9 °F 23.0 °F 96% 30.12 in 10.0 mi North - - N/A   Clear
3:55 AM 23.9 °F 23.4 °F 98% 30.11 in 10.0 mi North - - N/A   Clear
4:15 AM 23.9 °F 23.0 °F 96% 30.11 in 10.0 mi North - - N/A   Clear
4:55 AM 23.5 °F 22.8 °F 97% 30.10 in 10.0 mi North - - N/A   Clear
5:15 AM 23.4 °F 23.0 °F 99% 30.09 in 10.0 mi North - - N/A   Clear
5:35 AM 23.5 °F 23.2 °F 99% 30.08 in 10.0 mi North - - N/A   Clear
5:55 AM 23.0 °F 22.8 °F 99% 30.08 in 10.0 mi North - - N/A   Clear
6:15 AM 23.0 °F 22.8 °F 99% 30.08 in 10.0 mi North - - N/A   Clear
6:35 AM 23.0 °F 22.5 °F 98% 30.08 in 10.0 mi North - - N/A   Clear
6:55 AM 22.8 °F 22.5 °F 99% 30.08 in 10.0 mi North - - N/A   Clear
7:15 AM 22.3 °F 21.9 °F 99% 30.08 in 10.0 mi North - - N/A   Clear
7:35 AM 22.1 °F 21.7 °F 99% 30.09 in 10.0 mi North - - N/A   Clear
7:55 AM 22.5 °F 22.1 °F 99% 30.09 in 10.0 mi North - - N/A   Clear
8:15 AM 22.5 °F 21.9 °F 98% 30.09 in 10.0 mi North - - N/A   Clear
8:35 AM 24.8 °F 24.3 °F 98% 30.09 in 10.0 mi North - - N/A   Clear
8:55 AM 27.9 °F 27.0 °F 96% 30.10 in 10.0 mi North - - N/A   Scattered Clouds
9:15 AM 32.0 °F 27.5 °F 83% 30.10 in 10.0 mi North - - N/A   Mostly Cloudy
9:35 AM 32.0 °F 26.1 °F 79% 30.10 in 10.0 mi North - - N/A   Overcast
9:55 AM 33.8 °F 24.3 °F 68% 30.10 in 10.0 mi North - - N/A   Overcast
10:15 AM 34.0 °F 22.1 °F 62% 30.10 in 10.0 mi North - - N/A   Scattered Clouds
10:35 AM 34.5 °F 21.6 °F 59% 30.10 in 10.0 mi North - - N/A   Mostly Cloudy
10:55 AM 35.8 °F 21.7 °F 57% 30.10 in 10.0 mi North - - N/A   Overcast
11:15 AM 37.6 °F 20.5 °F 50% 30.09 in 10.0 mi North - - N/A   Overcast
11:35 AM 39.0 °F 19.8 °F 46% 30.07 in 10.0 mi North - - N/A   Mostly Cloudy
11:55 AM 38.1 °F 17.8 °F 44% 30.06 in 10.0 mi North - - N/A   Mostly Cloudy
12:15 PM 38.8 °F 18.5 °F 44% 30.04 in 10.0 mi North - - N/A   Overcast
12:35 PM 39.7 °F 18.0 °F 42% 30.03 in 10.0 mi North - - N/A   Overcast
12:55 PM 39.4 °F 14.9 °F 37% 30.02 in 10.0 mi North - - N/A   Mostly Cloudy
1:15 PM 40.8 °F 16.2 °F 37% 30.01 in 10.0 mi North - - N/A   Scattered Clouds
1:35 PM 41.4 °F 17.1 °F 38% 29.99 in 10.0 mi North - - N/A   Clear
1:55 PM 42.1 °F 17.6 °F 37% 29.98 in 10.0 mi North - - N/A   Clear
2:15 PM 42.3 °F 16.0 °F 35% 29.97 in 10.0 mi North - - N/A   Clear
2:35 PM 43.2 °F 15.8 °F 33% 29.97 in 10.0 mi North - - N/A   Clear
2:55 PM 43.7 °F 15.4 °F 32% 29.97 in 10.0 mi North - - N/A   Clear
3:15 PM 43.0 °F 13.8 °F 31% 29.96 in 10.0 mi North - - N/A   Clear
3:55 PM 41.4 °F 13.3 °F 32% 29.98 in 10.0 mi North - - N/A   Clear
4:15 PM 39.7 °F 11.1 °F 31% 29.98 in 10.0 mi North - - N/A   Clear
4:35 PM 38.7 °F 10.2 °F 31% 29.99 in 10.0 mi North - - N/A   Clear
4:55 PM 38.3 °F 11.8 °F 34% 30.00 in 10.0 mi North - - N/A   Clear
5:15 PM 37.4 °F 11.8 °F 35% 30.00 in 10.0 mi North - - N/A   Clear
5:55 PM 34.9 °F 12.0 °F 39% 30.01 in 10.0 mi North - - N/A   Clear
6:15 PM 34.2 °F 11.5 °F 39% 30.03 in 10.0 mi North - - N/A   Clear
6:35 PM 33.4 °F 10.9 °F 39% 30.03 in 10.0 mi North - - N/A   Clear
6:55 PM 32.9 °F 9.9 °F 38% 30.03 in 10.0 mi North - - N/A   Clear
7:15 PM 32.2 °F 9.1 °F 38% 30.03 in 10.0 mi North - - N/A   Clear
7:55 PM 31.1 °F 9.7 °F 41% 30.05 in 10.0 mi North - - N/A   Clear
8:15 PM 30.6 °F 9.7 °F 42% 30.06 in 10.0 mi North - - N/A   Clear
8:35 PM 30.0 °F 8.8 °F 41% 30.06 in 10.0 mi North - - N/A   Clear
8:55 PM 29.3 °F 9.5 °F 44% 30.06 in 10.0 mi North - - N/A   Clear
9:35 PM 28.4 °F 10.4 °F 47% 30.07 in 10.0 mi North - - N/A   Mostly Cloudy
9:55 PM 28.2 °F 10.2 °F 47% 30.08 in 10.0 mi North - - N/A   Mostly Cloudy
10:15 PM 27.7 °F 10.4 °F 48% 30.08 in 10.0 mi North - - N/A   Clear
10:35 PM 27.3 °F 10.4 °F 49% 30.09 in 10.0 mi North - - N/A   Mostly Cloudy
10:55 PM 26.6 °F 9.0 °F 47% 30.09 in 10.0 mi North - - N/A   Mostly Cloudy
11:15 PM 26.1 °F 8.2 °F 47% 30.10 in 10.0 mi North - - N/A   Mostly Cloudy
11:35 PM 25.2 °F 7.5 °F 47% 30.11 in 10.0 mi North - - N/A   Overcast
11:55 PM 24.4 °F 7.7 °F 49% 30.11 in 10.0 mi North - - N/A   Scattered Clouds